FW3030 Weather Reports


Display with metric or nautical units.
time (UTC)temp
F
wind
direction
speed
MPH
gust
MPH
rain 1hr
in
rain 24hr
in
rain mn
in
humidity
%
barometer
mb
20260507163059 53 5 2.0 12.0 0.00 0.00 0.00 29 1011.8
20260507161612 52 245 1.0 10.0 0.00 0.00 0.00 34 1011.8
20260507160105 51 340 3.0 9.0 0.00 0.00 0.00 35 1012.1
20260507154558 50 319 2.0 6.0 0.00 0.00 0.00 36 1012.2
20260507153101 50 317 2.0 6.0 0.00 0.00 0.00 39 1012.2
20260507151603 48 139 1.0 8.0 0.00 0.00 0.00 40 1012.2
20260507150057 47 232 1.0 5.0 0.00 0.00 0.00 43 1012.1
20260507144612 47 269 1.0 5.0 0.00 0.00 0.00 44 1012.1
20260507143102 46 277 2.0 6.0 0.00 0.00 0.00 47 1012.3
20260507141603 44 275 0.0 7.0 0.00 0.00 0.00 52 1012.2
20260507140056 42 221 2.0 7.0 0.00 0.00 0.00 56 1012.3
20260507134557 40 290 1.0 6.0 0.00 0.00 0.00 63 1012.3
20260507133139 37 279 2.0 6.0 0.00 0.00 0.00 74 1012.3
20260507131559 35 0 0.0 3.0 0.00 0.00 0.00 82 1012.5
20260507130108 33 0 0.0 2.0 0.00 0.00 0.00 84 1012.5
20260507124607 31 0 0.0 3.0 0.00 0.00 0.00 84 1012.6
20260507123058 30 0 0.0 3.0 0.00 0.00 0.00 84 1012.7
20260507121603 29 0 0.0 2.0 0.00 0.00 0.00 83 1012.6
20260507120105 28 213 0.0 2.0 0.00 0.00 0.00 81 1012.5
20260507114610 27 0 0.0 0.0 0.00 0.00 0.00 79 1012.7
20260507113059 27 0 0.0 0.0 0.00 0.00 0.00 78 1012.6
20260507111603 27 0 0.0 0.0 0.00 0.00 0.00 77 1012.6
20260507104559 28 0 0.0 0.0 0.00 0.00 0.00 76 1012.7
20260507103100 28 0 0.0 0.0 0.00 0.00 0.00 76 1012.7
20260507101603 29 0 0.0 0.0 0.00 0.00 0.00 75 1012.7
20260507100058 29 0 0.0 0.0 0.00 0.00 0.00 74 1012.8
20260507094602 29 0 0.0 0.0 0.00 0.00 0.00 73 1012.9
20260507093057 30 0 0.0 0.0 0.00 0.00 0.00 73 1013.0
20260507091558 30 0 0.0 0.0 0.00 0.00 0.00 72 1012.9
20260507090108 30 0 0.0 0.0 0.00 0.00 0.00 71 1012.8
20260507084608 31 0 0.0 0.0 0.00 0.00 0.00 70 1012.8
20260507083114 31 0 0.0 0.0 0.00 0.00 0.00 69 1012.8
20260507081611 32 0 0.0 0.0 0.00 0.00 0.00 68 1012.8
20260507080111 33 0 0.0 0.0 0.00 0.00 0.00 67 1012.8
20260507074609 33 0 0.0 0.0 0.00 0.00 0.00 67 1012.9
20260507073110 34 0 0.0 1.0 0.00 0.00 0.00 66 1012.9
20260507071610 35 0 0.0 0.0 0.00 0.00 0.00 66 1013.0
20260507070110 35 0 0.0 1.0 0.00 0.00 0.00 65 1013.0
20260507064610 36 0 0.0 0.0 0.00 0.00 0.00 63 1012.9
20260507063107 37 0 0.0 0.0 0.00 0.00 0.00 62 1013.1
20260507061608 37 0 0.0 0.0 0.00 0.00 0.00 61 1013.4
20260507054554 38 0 0.0 0.0 0.00 0.00 0.00 58 1013.7
20260507053116 39 0 0.0 1.0 0.00 0.00 0.00 58 1013.7
20260507051558 39 0 0.0 1.0 0.00 0.00 0.00 57 1013.8
20260507050056 40 0 0.0 1.0 0.00 0.00 0.00 57 1013.9
20260507044622 40 0 0.0 1.0 0.00 0.00 0.00 57 1014.0
20260507043059 40 0 0.0 1.0 0.00 0.00 0.00 57 1014.2
20260507041557 40 0 0.0 2.0 0.00 0.00 0.00 56 1014.2
20260507034602 40 0 0.0 3.0 0.00 0.00 0.00 55 1014.4
20260507033124 40 0 0.0 1.0 0.00 0.00 0.00 55 1014.4
20260507031604 41 0 0.0 3.0 0.00 0.00 0.00 54 1014.6
20260507030109 41 290 0.0 1.0 0.00 0.00 0.00 53 1014.5
20260507024609 41 0 0.0 4.0 0.00 0.00 0.00 53 1014.4
20260507023102 41 0 0.0 2.0 0.00 0.00 0.00 53 1014.4
20260507021600 41 0 0.0 2.0 0.00 0.00 0.00 52 1014.3
20260507014605 42 0 0.0 2.0 0.00 0.00 0.00 51 1014.4
20260507013103 42 276 0.0 5.0 0.00 0.00 0.00 51 1014.3
20260507011559 42 319 1.0 4.0 0.00 0.00 0.00 50 1014.5
20260507010059 42 253 1.0 5.0 0.00 0.00 0.00 50 1014.5
20260507004558 43 309 0.0 5.0 0.00 0.00 0.00 49 1014.6
20260507003104 43 292 2.0 7.0 0.00 0.00 0.00 48 1014.6
20260507001602 43 282 2.0 9.0 0.00 0.00 0.00 49 1014.7
20260507000100 43 291 1.0 7.0 0.00 0.00 0.00 49 1014.7
20260506234607 43 292 2.0 8.0 0.00 0.00 0.00 49 1014.8
20260506233059 43 355 3.0 12.0 0.00 0.00 0.00 49 1015.0
20260506231557 43 259 4.0 12.0 0.00 0.00 0.00 48 1015.0
20260506230104 44 231 3.0 11.0 0.00 0.00 0.00 48 1015.0
20260506224602 44 331 2.0 11.0 0.00 0.00 0.00 47 1015.0
20260506223055 44 249 3.0 13.0 0.00 0.00 0.00 47 1014.9
20260506221557 44 209 3.0 9.0 0.00 0.00 0.00 47 1014.9
20260506220101 44 323 4.0 8.0 0.00 0.00 0.00 46 1015.0
20260506214559 45 238 3.0 8.0 0.00 0.00 0.00 46 1015.0
20260506213101 45 259 3.0 10.0 0.00 0.00 0.00 46 1015.2
20260506211558 45 314 1.0 9.0 0.00 0.00 0.00 47 1015.3
20260506210055 45 236 4.0 11.0 0.00 0.00 0.00 46 1015.5
20260506204600 44 267 2.0 6.0 0.00 0.00 0.00 48 1015.7
20260506203059 44 265 3.0 12.0 0.00 0.00 0.00 47 1015.8
20260506201558 44 249 5.0 10.0 0.00 0.00 0.00 46 1015.7
20260506200104 45 257 3.0 10.0 0.00 0.00 0.00 47 1015.7
20260506194559 45 271 6.0 12.0 0.00 0.00 0.00 47 1015.8
20260506193058 44 244 5.0 10.0 0.00 0.00 0.00 47 1015.8
20260506191558 44 290 2.0 9.0 0.00 0.00 0.00 47 1015.8
20260506190058 44 267 3.0 9.0 0.00 0.00 0.00 48 1015.8
20260506184557 44 29 4.0 9.0 0.00 0.00 0.00 49 1015.9
20260506183056 42 350 2.0 8.0 0.00 0.00 0.00 53 1016.2
20260506181559 41 319 2.0 7.0 0.00 0.00 0.00 54 1016.4
20260506180058 41 321 3.0 9.0 0.00 0.00 0.00 54 1016.5
20260506174557 40 0 3.0 11.0 0.00 0.00 0.00 55 1016.5
20260506173130 40 259 2.0 8.0 0.00 0.00 0.00 55 1016.7
20260506171610 40 5 2.0 10.0 0.00 0.00 0.00 56 1016.8
20260506170103 40 360 2.0 8.0 0.00 0.00 0.00 57 1016.8
20260506164607 39 271 3.0 9.0 0.00 0.00 0.00 56 1016.8